Hourly Weather Kuta

Today, 13 August, Thursday

Time Temperature Precipitation Wind Pressure Humidity
00:00 +29°C° 0 mm 4 mps 758 mmHg 75%
01:00 +29°C° 0.2 mm 4 mps 758 mmHg 77%
02:00 +28°C° 0.2 mm 5 mps 757 mmHg 80%
03:00 +28°C° 0.2 mm 5 mps 756 mmHg 82%
04:00 +28°C° 0.1 mm 5 mps 756 mmHg 82%
05:00 +28°C° 0.1 mm 6 mps 757 mmHg 83%
06:00 +28°C° 0 mm 6 mps 757 mmHg 81%
07:00 +29°C° 0 mm 6 mps 757 mmHg 78%
08:00 +29°C° 0 mm 5 mps 757 mmHg 76%
09:00 +30°C° 0 mm 5 mps 757 mmHg 73%
10:00 +32°C° 0 mm 5 mps 757 mmHg 66%
11:00 +34°C° 0 mm 5 mps 757 mmHg 58%
12:00 +35°C° 0 mm 5 mps 757 mmHg 51%
13:00 +35°C° 0 mm 6 mps 756 mmHg 52%
14:00 +34°C° 0 mm 6 mps 755 mmHg 53%
15:00 +34°C° 0 mm 6 mps 754 mmHg 54%
16:00 +33°C° 0 mm 6 mps 755 mmHg 59%
17:00 +32°C° 0 mm 6 mps 755 mmHg 64%
18:00 +30°C° 0 mm 6 mps 756 mmHg 69%
19:00 +29°C° 0 mm 5 mps 756 mmHg 71%
20:00 +29°C° 0 mm 4 mps 756 mmHg 73%
21:00 +28°C° 0 mm 4 mps 757 mmHg 74%
22:00 +29°C° 0 mm 3 mps 756 mmHg 71%
23:00 +29°C° 0 mm 3 mps 756 mmHg 68%

Tomorrow, 14 August, Friday

Time Temperature Precipitation Wind Pressure Humidity
00:00 +29°C° 0 mm 2 mps 756 mmHg 65%
01:00 +29°C° 0 mm 2 mps 756 mmHg 63%
02:00 +29°C° 0 mm 2 mps 755 mmHg 62%
03:00 +29°C° 0 mm 1 mps 755 mmHg 61%
04:00 +29°C° 0 mm 2 mps 755 mmHg 62%
05:00 +28°C° 0 mm 2 mps 756 mmHg 63%
06:00 +28°C° 0 mm 2 mps 756 mmHg 64%
07:00 +29°C° 0 mm 2 mps 756 mmHg 61%
08:00 +31°C° 0 mm 1 mps 757 mmHg 58%
09:00 +32°C° 0 mm 1 mps 757 mmHg 55%
10:00 +32°C° 0 mm 1 mps 757 mmHg 55%
11:00 +33°C° 0 mm 1 mps 756 mmHg 55%
12:00 +34°C° 0 mm 2 mps 756 mmHg 55%
13:00 +34°C° 0 mm 2 mps 755 mmHg 59%
14:00 +33°C° 0 mm 3 mps 755 mmHg 63%
15:00 +33°C° 0 mm 3 mps 754 mmHg 67%
16:00 +31°C° 0 mm 3 mps 755 mmHg 72%
17:00 +30°C° 0 mm 3 mps 755 mmHg 76%
18:00 +29°C° 0 mm 3 mps 755 mmHg 80%
19:00 +29°C° 0 mm 3 mps 756 mmHg 81%
20:00 +29°C° 0 mm 3 mps 756 mmHg 82%
21:00 +28°C° 0 mm 3 mps 757 mmHg 83%
22:00 +28°C° 0 mm 3 mps 757 mmHg 82%
23:00 +28°C° 0 mm 3 mps 757 mmHg 81%

Day after tomorrow, 15 August, Saturday

Time Temperature Precipitation Wind Pressure Humidity
00:00 +28°C° 0 mm 3 mps 757 mmHg 80%
01:00 +28°C° 0 mm 3 mps 756 mmHg 80%
02:00 +28°C° 0 mm 3 mps 755 mmHg 80%
03:00 +28°C° 0 mm 3 mps 755 mmHg 81%
04:00 +28°C° 0 mm 3 mps 755 mmHg 80%
05:00 +28°C° 0 mm 3 mps 755 mmHg 80%
06:00 +28°C° 0 mm 3 mps 756 mmHg 79%
07:00 +30°C° 0 mm 3 mps 756 mmHg 72%
08:00 +31°C° 0 mm 2 mps 756 mmHg 65%
09:00 +34°C° 0 mm 2 mps 756 mmHg 58%
10:00 +34°C° 0 mm 2 mps 756 mmHg 58%
11:00 +35°C° 0 mm 2 mps 756 mmHg 58%
12:00 +35°C° 0 mm 2 mps 755 mmHg 58%
13:00 +34°C° 0 mm 3 mps 755 mmHg 60%
14:00 +34°C° 0 mm 3 mps 754 mmHg 63%
15:00 +33°C° 0 mm 3 mps 754 mmHg 66%
16:00 +31°C° 0 mm 3 mps 754 mmHg 71%
17:00 +30°C° 0 mm 2 mps 755 mmHg 76%
18:00 +29°C° 0 mm 2 mps 755 mmHg 81%
19:00 +29°C° 0 mm 2 mps 756 mmHg 82%
20:00 +29°C° 0 mm 2 mps 756 mmHg 83%
21:00 +28°C° 0 mm 2 mps 757 mmHg 84%
22:00 +28°C° 0 mm 2 mps 757 mmHg 84%
23:00 +28°C° 0 mm 2 mps 757 mmHg 84%

16 August, Sunday

Time Temperature Precipitation Wind Pressure Humidity
00:00 +28°C° 0 mm 2 mps 757 mmHg 84%
01:00 +28°C° 0 mm 2 mps 756 mmHg 84%
02:00 +28°C° 0 mm 2 mps 756 mmHg 85%
03:00 +28°C° 0 mm 2 mps 755 mmHg 85%
04:00 +28°C° 0.1 mm 2 mps 756 mmHg 86%
05:00 +28°C° 0.1 mm 2 mps 756 mmHg 86%
06:00 +28°C° 0.1 mm 2 mps 756 mmHg 86%
07:00 +29°C° 0.1 mm 2 mps 756 mmHg 79%
08:00 +31°C° 0.1 mm 2 mps 757 mmHg 73%
09:00 +32°C° 0.1 mm 2 mps 757 mmHg 66%
10:00 +34°C° 0 mm 3 mps 757 mmHg 65%
11:00 +34°C° 0 mm 4 mps 756 mmHg 65%
12:00 +34°C° 0 mm 5 mps 756 mmHg 64%
13:00 +34°C° 0.1 mm 5 mps 755 mmHg 66%
14:00 +33°C° 0.1 mm 5 mps 755 mmHg 68%
15:00 +33°C° 0.1 mm 5 mps 754 mmHg 69%
16:00 +32°C° 0.1 mm 5 mps 755 mmHg 73%
17:00 +30°C° 0.1 mm 5 mps 755 mmHg 77%
18:00 +29°C° 0.1 mm 4 mps 755 mmHg 81%
19:00 +29°C° 0 mm 4 mps 756 mmHg 82%
20:00 +28°C° 0 mm 4 mps 757 mmHg 83%
21:00 +28°C° 0 mm 3 mps 757 mmHg 84%
22:00 +28°C° 0 mm 3 mps 757 mmHg 84%
23:00 +28°C° 0 mm 3 mps 757 mmHg 84%

17 August, Monday

Time Temperature Precipitation Wind Pressure Humidity
00:00 +28°C° 0 mm 3 mps 757 mmHg 84%
01:00 +27°C° 0 mm 3 mps 756 mmHg 84%
02:00 +27°C° 0 mm 2 mps 756 mmHg 83%
03:00 +27°C° 0 mm 2 mps 755 mmHg 83%
04:00 +27°C° 0 mm 2 mps 755 mmHg 82%
05:00 +27°C° 0 mm 2 mps 756 mmHg 81%
06:00 +28°C° 0 mm 2 mps 756 mmHg 80%
07:00 +29°C° 0 mm 2 mps 756 mmHg 74%
08:00 +31°C° 0 mm 2 mps 757 mmHg 69%
09:00 +32°C° 0 mm 2 mps 757 mmHg 63%
10:00 +32°C° 0 mm 2 mps 757 mmHg 63%
11:00 +34°C° 0 mm 3 mps 756 mmHg 63%
12:00 +34°C° 0 mm 4 mps 756 mmHg 63%
13:00 +33°C° 0.2 mm 4 mps 755 mmHg 66%
14:00 +33°C° 0.2 mm 4 mps 755 mmHg 69%
15:00 +32°C° 0.2 mm 4 mps 754 mmHg 72%
16:00 +32°C° 0.4 mm 4 mps 754 mmHg 76%
17:00 +30°C° 0.4 mm 4 mps 755 mmHg 80%
18:00 +29°C° 0.4 mm 4 mps 755 mmHg 84%
19:00 +28°C° 0 mm 3 mps 756 mmHg 85%
20:00 +28°C° 0 mm 3 mps 756 mmHg 85%
21:00 +28°C° 0 mm 3 mps 757 mmHg 86%
22:00 +28°C° 0 mm 3 mps 757 mmHg 86%
23:00 +27°C° 0 mm 2 mps 756 mmHg 86%

18 August, Tuesday

Time Temperature Precipitation Wind Pressure Humidity
00:00 +27°C° 0 mm 2 mps 756 mmHg 86%
01:00 +27°C° 0 mm 2 mps 756 mmHg 85%
02:00 +27°C° 0 mm 2 mps 755 mmHg 85%
03:00 +27°C° 0 mm 2 mps 755 mmHg 85%
04:00 +27°C° 0 mm 1 mps 755 mmHg 85%
05:00 +27°C° 0 mm 1 mps 756 mmHg 84%
06:00 +27°C° 0 mm 1 mps 756 mmHg 84%
07:00 +29°C° 0 mm 1 mps 756 mmHg 77%
08:00 +30°C° 0 mm 1 mps 757 mmHg 71%
09:00 +30°C° 0 mm 0 mps 757 mmHg 64%
10:00 +32°C° 0 mm 1 mps 757 mmHg 64%
11:00 +32°C° 0 mm 2 mps 756 mmHg 63%
12:00 +34°C° 0 mm 2 mps 756 mmHg 63%
13:00 +32°C° 0.1 mm 2 mps 755 mmHg 65%
14:00 +32°C° 0.1 mm 2 mps 755 mmHg 67%
15:00 +32°C° 0.1 mm 2 mps 754 mmHg 69%
16:00 +31°C° 0.1 mm 2 mps 754 mmHg 73%
17:00 +30°C° 0.1 mm 3 mps 755 mmHg 78%
18:00 +29°C° 0.1 mm 3 mps 755 mmHg 82%
19:00 +29°C° 0.3 mm 3 mps 756 mmHg 83%
20:00 +28°C° 0.3 mm 2 mps 756 mmHg 85%
21:00 +28°C° 0.3 mm 2 mps 757 mmHg 86%
22:00 +28°C° 0.1 mm 2 mps 757 mmHg 85%
23:00 +28°C° 0.1 mm 2 mps 756 mmHg 85%
Show more